Portada
METAR-TAF:

METAR-TAF

Aeroports :

Poplar Bluff Municipal Airport

Poplar Bluff, Missouri, Estats Units d'Amèrica

latitud: 36-46-14N, longitud: 090-19-20W, altitud: 100 m

Observació

L'informe es va fer fa 28 minuts, a les 12:53 UTC
Vent 3 kt del Nord
Temperatura 18°C
Humitat 68%
Pressió 1023 hPa
Visibilitat: 16.1 km
Cel clar

METAR: KPOF 301253Z AUTO 01003KT 10SM CLR 18/12 A3020 RMK AO2 SLP225 T01780122

Hora: 08:21 (13:21 UTC)


TAF: manca

Observacions i pronòstics meteorològics de més de 4000 aeroports (METAR i TAF).

Les estacions disponibles són els punts grocs i vermells al mapa.

Posi el ratolí al punt desitjat per veure el nom de l'estació.

Feu clic per veure les observacions i els pronòstics meteorològics.

Per canviar el mapa: feu clic els botons verds amb una creu de color negre per apropar; al botó verd amb un guió per allunyar la imatge; o en les fletxes verdes per a mapes adjacents.


METAR-TAF: